Location: Gerlach
(40.6516°N, 119.3568°W)
Time: 04:36:21
(UTC-07:00)

SO-50 - Pass Details

Date: 24 February 2024
Orbit: 611 x 655 km, 64.6° (Epoch: 23 April)

Event Time Altitude Azimuth Distance (km) Brightness Sun altitude
Exits shadow 05:58:48 - 236° (WSW) 2,595 ? -8.4°
Reaches altitude 10° 06:00:19 10° 243° (WSW) 2,039 ? -8.1°
Maximum altitude 06:04:35 36° 310° (NW) 1,020 ? -7.3°
Drops below altitude 10° 06:08:49 10° 17° (NNE) 2,023 ? -6.5°
Sets 06:11:15 0° 26° (NNE) 2,926 ? -6.1°
